Location: Alma
(38.7220°N, 88.9090°W)
Time: 18:51:43
(UTC-06:00)

Vanguard 2 - Pass Details

Date: 21 November 2019
Orbit: 553 x 2938 km, 32.9° (Epoch: 14 December)

Event Time Altitude Azimuth Distance (km) Brightness Sun altitude
Rises 11:13:26 0° 271° (W) 4,443 11.4 31.0°
Reaches altitude 10° 11:17:12 10° 264° (W) 3,071 10.7 31.0°
Maximum altitude 11:23:37 38° 199° (SSW) 1,237 10.3 31.2°
Drops below altitude 10° 11:27:59 10° 130° (SE) 2,077 10.5 31.2°
Sets 11:30:05 0° 122° (ESE) 2,855 10.9 31.3°
